Location: ?????
(32.7281°N, 34.9563°E)
Time: 14:27:55
(UTC+00:00)

Daily predictions for brighter satellites

Satellite Brightness Start Highest point End
(mag) Time Altitude Azimuth Time Altitude Azimuth Time Altitude Azimuth
Cosmos 1302 Rocket 4.3 15:13:25 10° SSW 15:18:39 73° WNW 15:23:56 10° NNE
OAO 3 Rocket 3.4 15:14:34 10° WNW 15:19:25 75° SSW 15:24:10 10° ESE
Cosmos 2227 Rocket 3.1 15:16:19 10° N 15:21:06 27° ENE 15:25:51 10° ESE
Cosmos 1939 Rocket 3.8 15:18:35 10° SE 15:21:53 26° ENE 15:25:10 10° NNE
Envisat 4.1 15:19:24 10° S 15:24:18 50° W 15:29:15 10° NNW
Cosmos 1689 Rocket 2.6 15:22:25 10° NNE 15:25:06 35° E 15:27:46 10° SSE
OAO 2 Rocket 3.4 15:22:31 10° W 15:27:33 73° N 15:32:13 12° ENE
Cosmos 1697 Rocket 2.9 15:22:42 10° S 15:28:07 52° ESE 15:33:33 10° NNE
Cosmos 1892 3.8 15:25:43 10° NNE 15:28:54 24° ENE 15:32:05 10° SE
Cosmos 1300 4.2 15:28:19 10° SSW 15:31:54 40° W 15:35:31 10° N
Meteor 2-8 Rocket 4.4 15:26:09 10° S 15:32:13 77° E 15:38:21 10° N
Cosmos 1400 Rocket 3.1 15:28:45 10° SSW 15:32:51 73° W 15:36:57 10° N
S3M 4.3 15:27:14 10° SSE 15:32:52 41° E 15:38:32 10° NNE
COSMO-SKYMED 1 2.5 15:30:05 10° NNE 15:34:24 64° ESE 15:38:41 10° S
Delta 2 Rocket 4.1 15:32:33 10° WNW 15:37:36 76° SSW 15:43:08 10° ESE
SAR-Lupe-4 3.7 15:35:13 10° N 15:38:47 75° WNW 15:42:20 10° SSW
Helios 1A Rocket 3.8 15:35:24 10° SE 15:38:52 27° ENE 15:42:20 10° NNE
Atlas Centaur 2 3.2 15:31:59 10° WSW 15:40:03 73° S 15:47:29 15° E
YAOGAN 1 3.8 15:37:12 10° ESE 15:40:21 20° ENE 15:43:31 10° NNE
NOAA 11 4.1 15:34:57 10° SSE 15:40:24 79° ENE 15:45:50 10° N
Meteor 2-1 Rocket 4.4 15:36:00 10° SSE 15:41:12 45° E 15:46:26 10° NNE
Cosmos 1417 Rocket 4.5 15:36:52 10° S 15:43:01 67° E 15:49:16 10° NNE
CZ-4B R/B 3.4 15:41:03 10° NNW 15:43:48 28° WNW 15:46:29 10° SW
Cosmos 1825 4.4 15:42:32 10° NE 15:42:36 10° NE 15:42:36 10° NE
ERS-2 4.3 15:43:04 10° NNW 15:46:11 27° WNW 15:49:18 10° SW
Cosmos 1812 Rocket 4.2 15:42:18 10° SSE 15:46:12 32° E 15:50:06 10° NNE
Okean O Rocket 3.1 15:42:42 10° S 15:46:48 40° W 15:50:55 10° NNW
GPS 2-04 Rocket1 2.7 15:43:25 10° WSW 15:47:26 90° NNE 15:50:13 20° ENE
CZ-2D R/B 3.7 15:44:17 10° SE 15:47:47 37° ENE 15:51:19 10° N
CZ-4 R/B 2.1 15:46:34 10° SE 15:49:55 28° ENE 15:53:14 10° NNE
Aureole 3 4.5 15:47:45 10° SSW 15:50:48 35° W 15:53:36 10° NNW
Cosmos 1980 Rocket 2.6 15:46:29 10° S 15:51:43 41° ESE 15:56:57 10° NE
Meteor 2-15 Rocket 4.5 15:48:00 10° S 15:53:59 57° E 15:59:59 10° NNE
Cosmos 1992 Rocket 4.0 15:50:04 10° SSW 15:55:16 87° WNW 16:00:30 10° NNE
Cosmos 1340 2.6 15:52:12 10° N 15:55:59 87° W 15:59:44 10° S
CZ-2C R/B 3.7 15:53:04 10° SE 15:58:22 39° ENE 16:03:35 10° N
Timation 2 Rocket 4.5 15:52:42 10° NNW 15:59:24 72° WSW 16:06:12 10° SSE
Cosmos 2297 Rocket 2.1 15:55:07 10° NNW 16:00:48 77° ENE 16:06:26 10° SSE
Cosmos 1553 Rocket 4.2 15:54:48 10° S 16:01:09 76° W 16:07:28 10° N
In-Cosmos 22 Rocket 4.1 15:57:06 10° N 16:02:32 88° E 16:08:05 10° S
Cosmos 1346 Rocket 3.0 15:59:15 10° N 16:03:06 47° E 16:06:57 10° SSE
Cosmos 2058 3.0 15:59:15 10° N 16:03:12 47° E 16:07:09 10° SSE
ASTRO E2 2.7 16:00:15 10° W 16:04:12 74° S 16:05:54 32° ESE
Meteor 2-15 4.5 15:59:17 10° S 16:05:27 87° W 16:11:37 10° N
Cosmos 1315 Rocket 2.7 16:02:37 10° S 16:06:33 88° E 16:10:33 10° N
PSLV R/B 4.5 16:03:06 10° N 16:07:12 60° WNW 16:11:13 10° SSW
Meteor 2-10 Rocket 3.7 16:05:23 10° SSW 16:10:45 75° W 16:15:56 10° N
Cosmos 2360 4.3 16:08:57 10° SSW 16:14:40 79° WNW 16:20:25 10° NNE
CRYOSAT 2 4.3 16:10:10 10° NNE 16:14:57 57° E 16:19:43 10° S
Geosat 3.9 16:12:40 10° NNE 16:17:40 76° ESE 16:22:40 10° SSW
Cosmos 1455 2.6 16:15:31 10° SSW 16:19:13 63° W 16:22:59 10° N
H-2A R/B 2.5 16:15:54 19° SE 16:19:19 40° ENE 16:24:22 10° N
Okean-O 2.5 16:19:24 10° SSE 16:23:49 87° E 16:28:15 10° NNW
Cosmos 2278 3.6 16:19:21 10° SSW 16:25:01 89° ESE 16:30:44 10° NNE
MOS 1 Rocket 3.3 16:28:12 10° NNE 16:33:05 89° ESE 16:38:14 10° SSW
Milstar 3 3.0 16:26:26 10° W 16:33:17 61° S 16:36:12 34° ESE
Cosmos 2219 4.2 16:28:40 10° NNW 16:34:10 49° WSW 16:39:39 10° S
ARGOS 4.0 16:35:50 33° NE 16:35:50 33° NE 16:39:20 10° N
Cosmos 1745 Rocket 4.1 16:29:07 10° N 16:35:26 79° W 16:41:47 10° S
Cosmos 44 Rocket 4.5 16:32:55 10° SW 16:37:20 40° WNW 16:41:12 14° N
ATLAS 2AS CENTAUR R/B 4.2 16:34:38 10° N 16:38:49 20° NNE 16:38:49 20° NNE
Cosmos 2082 3.6 16:35:53 10° NNW 16:41:37 75° ENE 16:43:52 38° SSE
Cosmos 1408 4.0 16:45:06 10° NNW 16:48:31 38° W 16:51:57 10° SSW
Cosmos 968 Rocket 4.4 16:43:39 10° NNW 16:48:37 47° WSW 16:53:31 10° S
Cosmos 967 Rocket 4.4 16:42:22 10° SSW 16:48:48 87° WNW 16:51:58 32° NNE
CSL-04 Rocket 3.6 16:52:35 30° SSE 16:55:29 88° ENE 17:01:02 10° NNW
SL-16 R/B 4.2 16:56:33 10° S 16:57:27 15° S 16:57:27 15° S
Cosmos 1709 Rocket 4.0 16:58:35 10° N 17:04:59 83° W 17:11:20 10° S
Cosmos 2227 Rocket 3.8 17:00:05 10° NW 17:05:06 33° WSW 17:10:05 10° SSW
Cosmos 2263 Rocket 4.4 17:02:43 10° N 17:03:24 13° N 17:03:24 13° N
OAO 2 Rocket 4.1 17:07:33 10° WNW 17:11:10 47° WNW 17:11:10 47° WNW
CZ-4 R/B 4.3 17:22:40 10° SW 17:24:55 15° W 17:27:10 10° WNW
Atlas Centaur 2 3.0 17:21:31 10° W 17:30:00 73° S 17:30:04 73° S
Cosmos 1980 Rocket 4.3 17:31:28 10° WSW 17:35:48 23° WNW 17:39:22 13° NNW
H-2A R/B 4.4 17:56:31 16° SW 17:58:47 21° W 18:02:49 10° NW
